Tracking 20083 objects as of 8-Dec-2019
HD Live streaming from Space Station
objects crossing your sky now

FENGYUN 1C DEB

Track FENGYUN 1C DEB now!
10-day predictions


NORAD ID: 31665
Int'l Code: 1999-025CBX
Perigee: 830.6 km
Apogee: 1,127.8 km
Inclination: 98.5 °
Period: 104.5 minutes
Semi major axis: 7350 km
RCS: 0.0067 m2 (small)
Launch date: May 10, 1999
Source: People's Republic of China (PRC)
Launch site: Taiyaun Space Center, China (TSC)

Note: This is SATELLITE DEBRIS
aabbcc
Your satellite tracking list
Your tracking list is empty




NASA's NSSDC Master Catalog

Two Line Element Set (TLE):
1 31665U 99025CBX 19342.17223962  .00000565  00000-0  51795-3 0  9993
2 31665  98.4652 223.0879 0202147  34.5486 114.4946 13.77705618630715
Source of the keplerian elements: AFSPC